Orbital Elements at Epoch 2459000.5 (2020-May-31.0) TDB
Reference: JPL 22 (heliocentric ecliptic J2000)
Element | Value | Uncertainty (1-sigma) | Units |
e | .07745643047333643 | 3.5992e-08 | |
a | 2.189449389705123 | 6.9058e-09 | au |
q | 2.019862455276539 | 7.8222e-08 | au |
i | 5.538791285210669 | 4.1493e-06 | deg |
node | 5.71883693585927 | 3.7626e-05 | deg |
peri | 185.8847427570666 | 4.5433e-05 | deg |
M | 82.41927796014353 | 2.5982e-05 | deg |
tp | 2458729.588714107476 (2019-Sep-03.08871411) | 8.5238e-05 | TDB |
period | 1183.316152908686 3.24 | 5.5985e-06 1.533e-08 | d yr |
n | .3042297691239076 | 1.4394e-09 | deg/d |
Q | 2.359036324133707 | 7.4407e-09 | au |
|
| | Orbit Determination Parameters
Additional Information
|